Location: Unspecified
(0.0000°N, 0.0000°E)
Time: 14:05:36
(UTC+01:00)

N. Korean satellite - Visible Passes

Search period start: 19 November 2018 00:00
Search period end: 29 November 2018 00:00
Orbit: 457 x 511 km, 97.2° (Epoch: 18 November)

Date Brightness Start Highest point End Pass type
(mag) Time Alt. Az. Time Alt. Az. Time Alt. Az.
20 Nov 10.0 06:13:09 10° ENE 06:15:04 14° ESE 06:17:00 10° SE visible
20 Nov 9.5 19:33:21 10° SSW 19:36:15 22° WSW 19:39:06 10° NW visible
21 Nov 7.5 19:08:12 10° S 19:11:49 55° W 19:15:23 10° NNW visible
23 Nov 10.5 19:55:30 10° WSW 19:56:05 10° WSW 19:56:39 10° W visible
24 Nov 10.2 06:08:59 10° ENE 06:10:28 12° ESE 06:11:57 10° SE visible
24 Nov 9.2 19:28:36 10° SSW 19:31:40 25° WSW 19:34:40 10° NW visible
27 Nov 10.1 19:50:01 10° SW 19:51:28 12° WSW 19:52:53 10° WNW visible
28 Nov 10.5 06:05:06 10° E 06:05:50 11° ESE 06:06:34 10° ESE visible
28 Nov 8.9 19:23:50 10° SSW 19:27:01 29° WSW 19:30:09 10° NW visible
